Regional Weather Roundup
Issued by NWS San Angelo, TX

Home | Current Version | Previous Version | Text Only | Print | Product List | Glossary On
Versions: 1 2 3 4 5 6 7 8 9 10 11 12 13 14 15 16 17 18 19 20 21 22 23 24 25 26 27 28 29 30 31 32 33 34 35 36 37 38 39 40 41 42 43 44 45 46 47 48 49 50
000
ASUS44 KSJT 190810
RWRSJT
WEST CENTRAL TEXAS REGIONAL WEATHER ROUNDUP
NATIONAL WEATHER SERVICE SAN ANGELO TX
300 AM CDT FRI SEP 19 2014

NOTE: "FAIR" INDICATES FEW OR NO CLOUDS BELOW 12,000 FEET WITH NO
SIGNIFICANT WEATHER AND/OR OBSTRUCTIONS TO VISIBILITY.

TXZ049-054-064>066-071>073-076>078-098-099-113-114-127-128-139-140-
154-155-168>170-190900
...LOCATIONS ACROSS WEST CENTRAL TEXAS...

CITY           SKY/WX    TMP DP  RH WIND       PRES   REMARKS
SAN ANGELO     CLOUDY    70  69  97 E5        29.93F
ABILENE        MOCLDY    71  69  93 E6        29.94F
DYESS AFB      NOT AVBL
JUNCTION       CLOUDY    73  66  78 CALM      29.92F
SWEETWATER     CLOUDY    70  70 100 CALM      29.98F
BROWNWOOD      MOCLDY    70  70 100 NE5       29.93S
COLEMAN        PTSUNNY   70  69  95 CALM      29.94S FOG
SONORA         LGT RAIN  70  68  94 SE8       29.96F
OZONA          FAIR      70  66  88 S5        29.97R
BRADY          MOCLDY    68  68 100 N3        29.93R
$$

TEXAS PANHANDLE/OKLAHOMA PANHANDLE

CITY           SKY/WX    TMP DP  RH WIND       PRES   REMARKS
AMARILLO       CLOUDY    64  62  93 S6        30.05S
BORGER         MOCLDY    66  59  78 CALM      30.03F
CANADIAN       MOCLDY    62  60  93 CALM      30.00F
DALHART        CLOUDY    63  60  90 S8        30.07S
DUMAS          SUNNY     58  56  94 S6        30.05S
GUYMON         NOT AVBL
HEREFORD       CLOUDY    65  64  98 E5        30.06S
PAMPA          PTSUNNY   60  57  89 S7        30.05S
PERRYTON       CLEAR     60  55  86 S6        30.01F
$$

SOUTHERN PANHANDLE/SOUTH PLAINS/ROLLING PLAINS

CITY           SKY/WX    TMP DP  RH WIND       PRES   REMARKS
LUBBOCK        CLOUDY    67  64  90 SE7       30.02S
SNYDER         CLOUDY    69  67  95 CALM      29.97F
CHILDRESS      MOCLDY    71  68  90 CALM      29.98F
SEMINOLE       DRIZZLE   68  67  97 SE8       30.00F
$$

PERMIAN BASIN

CITY           SKY/WX    TMP DP  RH WIND       PRES   REMARKS
MIDLAND        CLOUDY    70  68  93 E10       29.95F
ODESSA         CLOUDY    70  67  90 SE10      29.96F
WINK           RAIN      71  70  96 E7        29.92S
$$

FAR WEST/SOUTHWEST MOUNTAINS/TRANS PECOS

CITY           SKY/WX    TMP DP  RH WIND       PRES   REMARKS
ALPINE         PTSUNNY   69  64  84 S3        30.05F
DRYDEN           N/A     76  71  85 NE9       29.90S
EL PASO        MOCLDY    68  65  90 N6        29.96S
FORT STOCKTON  CLOUDY    71  67  87 SE13      29.93F
GUADALUPE PASS FOG       64  64 100 E7        30.06F VSB 1/4
MARFA          MOCLDY    66  64  94 S5        30.04F
PECOS          HVY RAIN  70  67  92 E15       29.91S
$$

DALLAS/FORT WORTH METROPLEX

CITY           SKY/WX    TMP DP  RH WIND       PRES   REMARKS
DFW AIRPORT    MOCLDY    71  65  81 SE5       29.91F
FTW MEACHAM    MOCLDY    74  68  81 E6        29.90F
DAL-EXECUTIVE  PTCLDY    69  65  86 SE3       29.91F
GRAND PRAIRIE  PTCLDY    70  64  82 CALM      29.93S
ADDISON        MOCLDY    73  64  74 E3        29.94S
MESQUITE       MOSUNNY   67  64  91 E3        29.93S
LANCASTER      MOSUNNY   66  64  90 CALM      29.93S
$$

NORTH CENTRAL TEXAS

CITY           SKY/WX    TMP DP  RH WIND       PRES   REMARKS
SHRMAN/DENISON PTSUNNY   72  68  86 CALM      29.95S
GAINESVILLE    MOCLDY    71  67  87 CALM      29.95F
BRIDGEPORT     CLOUDY    71  71 100 CALM      29.94F
DENTON         MOCLDY    72  66  81 E5        29.92S
WAXAHACHIE     MOSUNNY   66  64  94 CALM      29.93F
GRANBURY       PTSUNNY   73  70  90 CALM      29.92F
$$

WESTERN NORTH TEXAS

CITY           SKY/WX    TMP DP  RH WIND       PRES   REMARKS
WICHITA FALLS  MOCLDY    70  68  93 E5        29.92F
VERNON         PTSUNNY   70  68  92 NE5       29.95F
BRECKENRIDGE   PTSUNNY   72  72  98 E3        29.93S
COMANCHE       MOCLDY    69  69 100 CALM      29.94S FOG
$$

CENTRAL AND SOUTH CENTRAL TEXAS

CITY           SKY/WX    TMP DP  RH WIND       PRES   REMARKS
AUSTIN/BERGSTM CLOUDY    76  75  97 E5        29.88S
WACO           CLOUDY    71  69  93 E5        29.91S
HILLSBORO      CLOUDY    70  67  91 E8        29.92S FOG
TEMPLE         CLOUDY    72  66  83 NE6       29.91S
KILLEEN-GRAY   MOCLDY    73  72  94 E3        29.91S
FORT HOOD      CLOUDY    75  73  93 CALM      29.92R
GEORGETOWN     CLOUDY    75  73  94 NE6       29.91S
LAGO VISTA     FOG       74  72  93 CALM      29.92S VSB 1/4
SAN MARCOS     MOCLDY    75  70  83 CALM      29.88F
NEW BRAUNFELS  CLOUDY    76  73  91 N3        29.86S
RANDOLPH AFB   CLOUDY    74  72  93 N3        29.88S
SAN ANTONIO    MOCLDY    76  73  91 CALM      29.88S
STINSON        CLOUDY    76  74  93 CALM      29.85F
PLEASANTON     NOT AVBL
LA GRANGE      CLOUDY    78  77  98 CALM      29.87R
GIDDINGS       CLOUDY    75  74  95 CALM      29.93S
$$

EAST TEXAS

CITY           SKY/WX    TMP DP  RH WIND       PRES   REMARKS
PARIS          PTCLDY    72  64  78 E6        29.95S
CLARKSVILLE    NOT AVBL
TYLER          CLOUDY    72  69  90 E8        29.93S
LONGVIEW       CLEAR     69  66  90 CALM      29.93S
PALESTINE      CLOUDY    72  72 100 E5        29.93S
NACOGDOCHES    MOCLDY    68  66  94 CALM      29.93S
$$

TEXAS HILL COUNTRY AND EDWARDS PLATEAU

CITY           SKY/WX    TMP DP  RH WIND       PRES   REMARKS
LLANO          CLOUDY    72  72 100 CALM      29.94S
HORSESHOE BAY  CLOUDY    72  72 100 CALM      29.91S
KERRVILLE      MOCLDY    72  69  93 CALM      29.92S
FREDERICKSBRG  CLOUDY    71  68  90 CALM      29.92F
ROCKSPRINGS    CLOUDY    72  66  83 E6        29.96F
HONDO          CLOUDY    76  73  91 E6        29.90S
UVALDE         TSTM      73  72  97 E7        29.91R
DEL RIO        CLOUDY    78  71  79 E12       29.84F
$$

SOUTHEAST TEXAS

CITY           SKY/WX    TMP DP  RH WIND       PRES   REMARKS
COLLEGE STN    CLOUDY    74  73  97 SE8       29.89R
CALDWELL       CLOUDY    73  73 100 CALM      29.93R
CROCKETT       CLOUDY    73  73 100 E3        29.94S
BRENHAM        LGT RAIN  76  75  95 CALM      29.90R
HUNTSVILLE     CLOUDY    74  72  93 CALM      29.90S
CONROE         CLOUDY    74  73  97 CALM      29.91R
HOUSTON BUSH   CLOUDY    75  74  96 E7        29.88S
HOUSTON HOBBY  MOCLDY    77  74  90 NE3       29.88R
PERLAND        CLOUDY    77  74  90 E5        29.89S
WHARTON        CLOUDY    75  74  96 E3        29.87S
$$

THE UPPER TEXAS COAST

CITY           SKY/WX    TMP DP  RH WIND       PRES   REMARKS
ORANGE         CLOUDY   N/A N/A N/A CALM      29.91R
PORT ARTHUR    CLOUDY    77  74  90 NE5       29.89S
GALVESTON      CLOUDY    81  76  84 SE9       29.88F
ANGLETON       MOCLDY    76  74  93 CALM      29.87S
BAY CITY       CLOUDY   N/A N/A N/A NE3       29.86R
$$

TEXAS COASTAL BEND, RIO GRANDE PLAINS DEEP SOUTH TEXAS

CITY           SKY/WX    TMP DP  RH WIND       PRES   REMARKS
VICTORIA       MOCLDY    78  76  93 E5        29.85F
BEEVILLE       FAIR      76  76 100 E3        29.85S
ROCKPORT       CLOUDY    83  76  79 S8        29.83F
PORT ARANSAS   CLOUDY    83  76  79 S10       29.83S
PORT LAVACA    RAIN      77  74  91 SE8       29.85S
CORPUS CHRISTI MOCLDY    78  76  93 SE3       29.84S
KINGSVILLE NAS PTCLDY    78  78 100 S5        29.83F
COTULLA        CLOUDY    81  74  79 S9        29.84F
LAREDO         CLEAR     80  75  84 SE9       29.86F
BROWNSVILLE    CLEAR     79  77  94 SE5       29.82F FOG
PORT ISABEL    CLEAR     81  77  88 S7        29.82F FOG
HEBBRONVILLE     N/A     76  74  93 SE5       29.86F
MCALLEN        CLEAR     78  77  96 SE6       29.83F
WESLACO        CLEAR     79  75  89 SE8       29.82F FOG
FALFURRIAS     SUNNY    N/A N/A N/A CALM      29.83S
EDINBURG       SUNNY     79  76  89 SE3       29.82F
$$


USA.gov is the U.S. government's official web portal to all federal, state and local government web resources and services.